Regional Weather Roundup
Issued by NWS

Home | Current Version | Previous Version | Graphics & Text | Print | Product List | Glossary On
Versions: 1 2 3 4 5 6 7 8 9 10 11 12 13 14 15 16 17 18 19 20 21 22 23 24 25 26 27 28 29 30 31 32 33 34 35 36 37 38 39 40 41 42 43 44 45 46 47 48 49 50
306
ASUS43 KLMK 220810
RWRKY
KENTUCKY REGIONAL WEATHER ROUNDUP
NATIONAL WEATHER SERVICE LOUISVILLE KY
400 AM EDT SUN OCT 22 2017

NOTE "FAIR" INDICATES FEW OR NO CLOUDS BELOW 12,000 FEET
WITH NO SIGNIFICANT WEATHER AND/OR OBSTRUCTIONS TO VISIBILITY.

KYZ001>023-026-027-061>063-070>075-220900-
WESTERN AND SOUTH CENTRAL KENTUCKY

CITY           SKY/WX    TMP DP  RH WIND       PRES   REMARKS
PADUCAH        CLOUDY    69  59  70 S14       30.02F
HENDERSON      PTCLDY    63  57  81 SE6       30.07F
OWENSBORO      PTCLDY    62  54  74 SE9       30.09F
HOPKINSVILLE   MOCLDY    63  56  76 SE8       30.09F
BOWLING GREEN  CLOUDY    54  52  93 CALM      30.15F
GLASGOW        PTCLDY    60  49  66 SE3       30.17S
$$

KYZ024-025-028>034-038-045-046-053-220900-
NORTH CENTRAL KENTUCKY

CITY           SKY/WX    TMP DP  RH WIND       PRES   REMARKS
LOUISVILLE/SDF CLOUDY    59  50  72 SE6       30.15F
LOUISVILLE/LOU CLOUDY    59  51  75 E5        30.16F
FORT KNOX      CLEAR     60  50  69 SE10      30.14F
$$

KYZ035>037-039>044-047>052-055>060-089>105-220900-
NORTHEAST KENTUCKY

CITY           SKY/WX    TMP DP  RH WIND       PRES   REMARKS
LEXINGTON      PTCLDY    57  48  72 SE7       30.21F
COVINGTON      CLEAR     58  48  69 S6        30.18F
FRANKFORT      PTCLDY    52  47  83 CALM      30.19S
$$

KYZ054-064>069-076>088-106>120-220900-
SOUTHEAST KENTUCKY

CITY           SKY/WX    TMP DP  RH WIND       PRES   REMARKS
JACKSON        PTCLDY    59  47  64 CALM      30.24S
LONDON         CLOUDY    48  46  93 CALM      30.24R
SOMERSET       MOCLDY    50  50 100 CALM      30.24F
MIDDLESBORO    CLOUDY    47  47 100 CALM      30.27S
MONTICELLO     MOSUNNY   52  48  86 VRB5      30.23F
$$





USA.gov is the U.S. government's official web portal to all federal, state and local government web resources and services.